KJ4CO Weather Reports


time (UTC)temp
F
wind
direction
speed
knots
gust
knots
rain 1hr
in
rain 24hr
in
rain mn
in
humidity
%
barometer
mb
20260504081511 62 122 0.0 0.0 0.00 0.00 0.00 63 1011.2
20260504044552 62 121 0.0 0.0 0.00 0.00 0.00 57 1012.8
20260504043046 62 121 0.0 0.0 0.00 0.00 0.00 56 1012.9
20260504041546 62 121 0.0 0.0 0.00 0.00 0.00 57 1013.1
20260504040100 61 121 0.0 0.0 0.00 0.00 0.00 57 1013.2
20260504034556 62 121 0.0 0.0 0.00 0.00 0.00 57 1013.3
20260504033114 62 121 0.0 0.0 0.00 0.00 0.00 56 1013.4
20260504031544 62 121 0.0 0.0 0.00 0.00 0.00 55 1013.5
20260504030047 62 121 0.0 0.0 0.00 0.00 0.00 55 1013.5
20260504024544 62 121 0.0 0.0 0.00 0.00 0.00 55 1013.4
20260504023057 63 121 0.0 0.0 0.00 0.00 0.00 53 1013.2
20260504021541 63 121 0.0 0.0 0.00 0.00 0.00 53 1013.2
20260504020141 63 121 0.0 0.0 0.00 0.00 0.00 53 1013.1
20260504014547 64 121 0.0 0.0 0.00 0.00 0.00 52 1013.0
20260504013045 65 121 0.0 0.0 0.00 0.00 0.00 49 1013.2
20260504011537 66 121 0.0 0.0 0.00 0.00 0.00 48 1013.1
20260504010046 67 121 0.0 0.0 0.00 0.00 0.00 46 1013.4
20260504004542 67 121 0.0 0.0 0.00 0.00 0.00 44 1013.3
20260504003037 68 121 0.0 0.0 0.00 0.00 0.00 43 1013.3
20260504001534 69 121 0.0 0.0 0.00 0.00 0.00 42 1013.3
20260504000033 70 121 0.0 0.0 0.00 0.00 0.00 41 1013.5
20260503234540 70 124 0.0 0.0 0.00 0.00 0.00 40 1013.6
20260503233031 71 122 0.0 0.0 0.00 0.00 0.00 39 1013.6
20260503231533 71 130 0.0 0.0 0.00 0.00 0.00 40 1013.9
20260503230027 72 129 0.0 0.0 0.00 0.00 0.00 40 1014.1
20260503224525 72 131 0.0 1.7 0.00 0.00 0.00 38 1014.3
20260503223024 72 130 0.0 0.0 0.00 0.00 0.00 38 1014.4
20260503221521 72 123 0.0 0.0 0.00 0.00 0.00 39 1014.6
20260503220022 72 105 0.0 0.0 0.00 0.00 0.00 39 1014.8
20260503214515 72 121 0.0 0.0 0.00 0.00 0.00 39 1015.0
20260503213012 71 113 0.0 0.0 0.00 0.00 0.00 40 1015.5
20260503211508 71 125 0.0 0.0 0.00 0.00 0.00 42 1015.7
20260503210006 71 126 0.0 0.0 0.00 0.00 0.00 41 1016.0
20260503204503 71 137 0.0 0.9 0.00 0.00 0.00 42 1016.4
20260503203105 71 130 0.0 0.0 0.00 0.00 0.00 40 1016.7
20260503201558 70 128 0.0 0.0 0.00 0.00 0.00 43 1017.2
20260503200058 70 125 0.0 0.0 0.00 0.00 0.00 42 1017.5
20260503194549 69 103 0.0 0.0 0.00 0.00 0.00 45 1017.6
20260503193053 69 120 0.0 0.0 0.00 0.00 0.00 44 1017.9
20260503191544 68 122 0.0 0.0 0.00 0.00 0.00 46 1018.4
20260503190041 68 120 0.0 0.0 0.00 0.00 0.00 46 1018.8
20260503184550 67 113 0.0 0.0 0.00 0.00 0.00 47 1019.3
20260503183049 66 128 0.0 0.0 0.00 0.00 0.00 47 1019.5
20260503181533 66 135 0.0 0.0 0.00 0.00 0.00 46 1019.6
20260503180034 65 109 0.0 0.0 0.00 0.00 0.00 48 1020.0
20260503174527 65 122 0.0 0.0 0.00 0.00 0.00 46 1020.1
20260503173032 64 131 0.0 0.0 0.00 0.00 0.00 47 1020.3
20260503171523 64 125 0.0 0.0 0.00 0.00 0.00 48 1020.4
20260503150107 58 115 0.0 0.0 0.00 0.00 0.00 61 1021.7